Location: Banff
(51.1667°N, 115.5667°W)
Time: 02:56:03
(UTC+00:00)

deb Explorer IX - Pass Details

Date: 03 December 2020
Orbit: 536 x 1104 km, 38.8° (Epoch: 25 January)

Event Time Altitude Azimuth Distance (km) Brightness Sun altitude
Rises 01:33:26 0° 253° (WSW) 3,569 ? -17.3°
Reaches altitude 10° 01:36:46 10° 239° (WSW) 2,515 ? -17.8°
Maximum altitude 01:41:07 21° 191° (SSW) 1,698 ? -18.4°
Drops below altitude 10° 01:45:02 10° 143° (SE) 2,215 ? -19.0°
Enters shadow 01:45:07 10° 142° (SE) 2,240 ? -19.1°
